FW0270 Weather Reports


time (UTC)temp
F
wind
direction
speed
knots
gust
knots
rain 1hr
in
rain 24hr
in
rain mn
in
humidity
%
barometer
mb
20260504044540 47 298 0.0 0.0 0.00 0.00 0.00 71 1006.2
20260504043034 47 298 0.0 0.0 0.00 0.00 0.00 72 1006.5
20260504041528 48 298 0.0 0.0 0.00 0.00 0.00 71 1006.6
20260504040026 48 298 0.0 0.0 0.00 0.00 0.00 72 1006.7
20260504034533 49 298 0.0 0.0 0.00 0.00 0.00 69 1006.8
20260504033031 49 298 0.0 0.0 0.00 0.00 0.00 68 1006.9
20260504031522 51 298 0.0 0.0 0.00 0.00 0.00 65 1007.0
20260504030023 52 298 0.0 0.0 0.00 0.00 0.00 61 1007.0
20260504024522 54 298 0.0 0.0 0.00 0.00 0.00 56 1007.0
20260504023020 56 298 0.0 0.0 0.00 0.00 0.00 53 1006.9
20260504021525 57 298 0.0 0.9 0.00 0.00 0.00 51 1006.7
20260504020018 57 298 0.0 0.0 0.00 0.00 0.00 50 1006.7
20260504014519 60 298 0.0 0.0 0.00 0.00 0.00 46 1006.8
20260504013027 62 298 0.0 0.0 0.00 0.00 0.00 43 1006.5
20260504011517 65 298 0.0 0.9 0.00 0.00 0.00 40 1006.3
20260504010016 68 298 0.0 0.9 0.00 0.00 0.00 37 1006.2
20260504004515 70 298 0.0 3.5 0.00 0.00 0.00 35 1006.2
20260504003013 71 290 0.9 5.2 0.00 0.00 0.00 32 1006.1
20260504001513 72 301 1.7 6.1 0.00 0.00 0.00 31 1006.1
20260504000013 73 293 1.7 6.1 0.00 0.00 0.00 32 1006.1
20260503234511 73 308 3.5 7.8 0.00 0.00 0.00 30 1005.9
20260503233010 73 5 2.6 10.4 0.00 0.00 0.00 29 1005.9
20260503231509 74 282 2.6 7.8 0.00 0.00 0.00 30 1005.8
20260503230012 74 26 2.6 9.6 0.00 0.00 0.00 27 1005.9
20260503224507 75 306 3.5 13.0 0.00 0.00 0.00 28 1005.8
20260503223006 75 34 7.0 11.3 0.00 0.00 0.00 28 1005.8
20260503221504 75 297 4.3 12.2 0.00 0.00 0.00 27 1005.7
20260503220006 75 19 3.5 10.4 0.00 0.00 0.00 30 1005.7
20260503214502 75 121 4.3 11.3 0.00 0.00 0.00 33 1005.8
20260503213002 75 255 3.5 11.3 0.00 0.00 0.00 31 1005.6
20260503211610 75 310 5.2 11.3 0.00 0.00 0.00 31 1005.7
20260503210059 75 300 4.3 11.3 0.00 0.00 0.00 32 1005.6
20260503204602 75 304 3.5 10.4 0.00 0.00 0.00 35 1005.8
20260503203057 74 26 4.3 13.0 0.00 0.00 0.00 33 1005.7
20260503201558 75 342 4.3 12.2 0.00 0.00 0.00 35 1005.8
20260503200056 75 321 3.5 11.3 0.00 0.00 0.00 34 1006.0
20260503194555 74 240 3.5 11.3 0.00 0.00 0.00 36 1005.7
20260503193054 74 343 7.0 13.0 0.00 0.00 0.00 36 1005.9
20260503191549 74 77 4.3 9.6 0.00 0.00 0.00 38 1006.1
20260503190051 74 274 3.5 7.8 0.00 0.00 0.00 38 1006.2
20260503184545 73 337 1.7 10.4 0.00 0.00 0.00 40 1006.3
20260503183043 72 287 3.5 7.8 0.00 0.00 0.00 39 1006.3
20260503181613 72 229 2.6 7.0 0.00 0.00 0.00 43 1006.7
20260503180040 71 315 1.7 7.0 0.00 0.00 0.00 43 1006.9
20260503174533 70 287 3.5 11.3 0.00 0.00 0.00 44 1007.1
20260503173043 69 284 0.9 8.7 0.00 0.00 0.00 48 1007.2
20260503171525 68 280 1.7 7.0 0.00 0.00 0.00 48 1007.5
20260503150105 60 203 5.2 12.2 0.00 0.00 0.00 50 1008.8
20260503100106 50 136 0.0 0.9 0.00 0.00 0.00 59 1013.4
20260503081548 51 137 0.0 0.9 0.00 0.00 0.00 63 1014.3
20260503071538 53 54 2.6 7.0 0.00 0.00 0.00 52 1014.2